This is the latest recevied weather packets stored in our database for station/object KD5BIG-13. If no packets are shown the sender has not sent any weather packets the latest 10 day(s).
| Time | Temp. | Humidity | Pressure | Rain* | Wind** | Luminosity | Snow |
|---|---|---|---|---|---|---|---|
| 1777105191 | 17.22° C | 95% | 1014.3 hPa | 14.48 mm | - | 0 W/m² | - |
| 1777104889 | 17.22° C | 95% | 1014.3 hPa | 37.85 mm | - | 0 W/m² | - |
| 1777104584 | 17.78° C | 94% | 1014.3 hPa | 48.51 mm | - | 0 W/m² | - |
| 1777104281 | 17.78° C | 93% | 1014.6 hPa | 37.85 mm | - | 0 W/m² | - |
| 1777103977 | 17.78° C | 92% | 1014.7 hPa | 24.64 mm | - | 0 W/m² | - |
| 1777103673 | 18.33° C | 91% | 1014.7 hPa | 7.11 mm | - | 0 W/m² | - |
| 1777103371 | 19.44° C | 87% | 1014.7 hPa | 1.78 mm | - | 0 W/m² | - |
| 1777103068 | 20.56° C | 84% | 1014.3 hPa | 0 mm | - | 0 W/m² | - |
| 1777102765 | 21.11° C | 86% | 1014.1 hPa | 0 mm | - | 0 W/m² | - |
| 1777102460 | 21.11° C | 95% | 1013.7 hPa | 0 mm | - | 0 W/m² | - |
| 1777102157 | 21.11° C | 95% | 1013.3 hPa | 0 mm | - | 0 W/m² | - |
| 1777101854 | 21.11° C | 95% | 1013.3 hPa | 0 mm | - | 0 W/m² | - |
| 1777101549 | 21.11° C | 94% | 1013.4 hPa | 0 mm | - | 0 W/m² | - |
| 1777101245 | 21.11° C | 94% | 1013.3 hPa | 0 mm | - | 0 W/m² | - |
| 1777100942 | 21.11° C | 94% | 1013.3 hPa | 0 mm | - | 0 W/m² | - |
| 1777100638 | 21.11° C | 94% | 1013.4 hPa | 0 mm | - | 0 W/m² | - |
| 1777100335 | 21.11° C | 94% | 1013.4 hPa | 0 mm | - | 0 W/m² | - |
| 1777100033 | 21.11° C | 93% | 1013.2 hPa | 0 mm | - | 0 W/m² | - |
| 1777099730 | 21.11° C | 93% | 1013.2 hPa | 0 mm | - | 0 W/m² | - |
| 1777099424 | 21.11° C | 92% | 1013.4 hPa | 0 mm | - | 0 W/m² | - |
| 1777099122 | 21.67° C | 92% | 1013.2 hPa | 0 mm | - | 0 W/m² | - |
| 1777098819 | 21.67° C | 92% | 1013.2 hPa | 0 mm | - | 0 W/m² | - |
| 1777098519 | 21.67° C | 91% | 1012.9 hPa | 0 mm | - | 0 W/m² | - |
| 1777098216 | 21.67° C | 91% | 1012.9 hPa | 0 mm | - | 0 W/m² | - |
| 1777097914 | 21.67° C | 91% | 1013.1 hPa | 0 mm | - | 0 W/m² | - |
* Rain latest hour (hover to see other rain measurements)
** Current wind speed in m/s (hover to see current wind gust speed)